Weather History for Grand Canyon, AZ

Change the Weather History Date:

Monday, February 11, 2013

  Actual Average Record
Temperature  
Mean Temperature 8 °F -  
Max Temperature 28 °F 43 °F 57 °F (2002)
Min Temperature -11 °F 16 °F -11 °F (2013)
Degree Days  
Heating Degree Days 56    
Moisture  
Dew Point -2 °F    
Average Humidity 78    
Maximum Humidity 100    
Minimum Humidity 53    
Precipitation  
Precipitation 0.00 in - - ()
Sea Level Pressure  
Sea Level Pressure 30.04 in    
Wind  
Wind Speed 1 mph (ENE)    
Max Wind Speed 7 mph    
Max Gust Speed -    
Visibility 6 miles    
Events Fog , Snow    
Averages and records for this station are not official NWS values.
T = Trace of Precipitation, MM = Missing Value Source: NWS Daily Summary

Daily Weather History Graph

Daily Weather History Graph

Search for Another Location

Airport:

Trip Planner

Search our weather history database for the weather conditions in past years. The results will help you decide how hot, cold, wet, or windy it might be!

Date:

Astronomy

Feb. 11, 2013 Rise Set
Actual Time 7:19 AM MST 6:06 PM MST
Civil Twilight 6:53 AM MST 6:32 PM MST
Nautical Twilight 6:23 AM MST 7:03 PM MST
Astronomical Twilight 5:53 AM MST 7:32 PM MST
Moon 7:51 AM MST (2/11) 8:01 PM MST (2/11)
Length of Visible Light 11h 39m
Length of Day
10h 46m
Waxing Crescent, 3% of the Moon is Illuminated
Feb 11
Waxing Crescent
Feb 17
First Quarter
Feb 25
Full
Mar 4
Last Quarter
Mar 11
New

Hourly Weather History & Observations

Time (MST) Temp. Windchill Dew Point Humidity Pressure Visibility Wind Dir Wind Speed Gust Speed Precip Events Conditions
12:24 AM 6.8 °F - 3.2 °F 85% 29.92 in 0.2 mi Calm Calm - N/A Fog Light Freezing Fog
12:37 AM 6.8 °F - 3.2 °F 85% 29.92 in - North - - N/A   Unknown
12:54 AM - - - N/A% 29.91 in - North - - N/A   Unknown
1:54 AM -4.0 °F -14.6 °F -9.0 °F 79% 30.12 in 10.0 mi ENE 4.6 mph - N/A   Partly Cloudy
2:54 AM -7.1 °F - -13.0 °F 75% 30.12 in 10.0 mi Calm Calm - N/A   Clear
3:07 AM -9.4 °F - -14.8 °F 77% 29.93 in 10.0 mi Calm Calm - N/A   Scattered Clouds
3:15 AM -7.6 °F - -13.0 °F 77% 29.93 in 10.0 mi Calm Calm - N/A   Mostly Cloudy
3:50 AM -5.8 °F - -9.4 °F 84% 29.92 in 1.8 mi Calm Calm - N/A   Overcast
3:51 AM -5.8 °F - -9.4 °F 84% 29.92 in 1.2 mi Calm Calm - N/A   Overcast
3:54 AM -6.0 °F - -9.0 °F 87% 30.10 in 0.5 mi Calm Calm - N/A Fog Light Freezing Fog
4:05 AM -5.8 °F - -9.4 °F 84% 29.92 in 0.2 mi Calm Calm - N/A Fog Light Freezing Fog
4:15 AM -5.8 °F - -9.4 °F 84% 29.92 in 1.0 mi Calm Calm - N/A   Mist
4:17 AM -5.8 °F - -9.4 °F 84% 29.91 in 2.5 mi Calm Calm - N/A   Overcast
4:24 AM -5.8 °F - -11.2 °F 77% 29.92 in 10.0 mi Calm Calm - N/A   Overcast
4:40 AM -5.8 °F - -11.2 °F 77% 29.91 in - North - - N/A   Unknown
4:54 AM -7.1 °F -19.9 °F -11.9 °F 79% 30.12 in - ENE 5.8 mph - N/A   Unknown
5:54 AM -9.9 °F - -16.1 °F 74% 30.14 in 10.0 mi Calm Calm - N/A   Clear
6:54 AM -11.0 °F -20.4 °F -17.0 °F 75% 30.16 in 2.5 mi NE 3.5 mph - N/A   Haze
7:03 AM -11.2 °F -20.6 °F -16.6 °F 77% 29.92 in 1.8 mi ENE 3.5 mph - N/A   Haze
7:09 AM -11.2 °F - -16.6 °F 77% 29.93 in 3.0 mi Calm Calm - N/A   Haze
7:17 AM -11.2 °F - -18.4 °F 70% 29.93 in 2.5 mi Calm Calm - N/A   Haze
7:27 AM -11.2 °F - -16.6 °F 77% 29.93 in 1.2 mi Calm Calm - N/A   Haze
7:36 AM -11.2 °F -23.0 °F -18.4 °F 70% 29.94 in 1.0 mi NE 4.6 mph - N/A   Haze
7:41 AM -11.2 °F -20.6 °F -16.6 °F 77% 29.94 in 1.5 mi NE 3.5 mph - N/A   Haze
7:54 AM -9.9 °F - -15.0 °F 78% 30.17 in - North - - N/A   Unknown
8:25 AM -5.8 °F - -9.4 °F 84% 29.95 in 2.0 mi Calm Calm - N/A   Mist
8:37 AM -4.0 °F - -7.6 °F 85% 29.95 in - North - - N/A   Unknown
8:54 AM - - - N/A% 29.94 in - Calm Calm - N/A   Unknown
9:01 AM 6.8 °F - 6.8 °F 100% 29.95 in 0.8 mi Calm Calm - N/A   Mist
9:09 AM 8.6 °F - 8.6 °F 100% 29.96 in 10.0 mi Calm Calm - N/A   Unknown
9:54 AM 15.1 °F - 12.0 °F 88% 30.16 in 10.0 mi Calm Calm - N/A   Clear
10:54 AM 21.9 °F 15.7 °F 12.9 °F 68% 30.10 in 10.0 mi NE 4.6 mph - N/A   Partly Cloudy
11:54 AM 28.0 °F 22.8 °F 12.9 °F 53% 30.09 in 10.0 mi NE 4.6 mph - N/A   Partly Cloudy
12:54 PM 27.0 °F 19.5 °F 19.0 °F 72% 29.97 in 10.0 mi WSW 6.9 mph - N/A   Mostly Cloudy
1:04 PM 26.6 °F 19.1 °F 19.4 °F 74% 29.97 in 1.8 mi Variable 6.9 mph - 0.00 in Snow Light Snow
1:11 PM 24.8 °F 16.9 °F 17.6 °F 74% 29.97 in 10.0 mi West 6.9 mph - 0.00 in Snow Light Snow
1:54 PM 26.1 °F 18.4 °F 19.0 °F 75% 30.14 in 10.0 mi SW 6.9 mph - 0.00 in   Mostly Cloudy
2:54 PM 26.1 °F 20.5 °F 14.0 °F 60% 30.16 in 10.0 mi SW 4.6 mph - N/A   Mostly Cloudy
3:01 PM 26.6 °F 21.2 °F 14.0 °F 59% 29.97 in 10.0 mi WSW 4.6 mph - N/A   Mostly Cloudy
3:54 PM 26.1 °F 19.4 °F 17.1 °F 69% 30.17 in 10.0 mi South 5.8 mph - N/A   Mostly Cloudy
4:54 PM 25.0 °F 19.3 °F 18.0 °F 75% 30.19 in 10.0 mi SSE 4.6 mph - N/A   Mostly Cloudy
5:54 PM 24.1 °F - 18.0 °F 77% 30.23 in 10.0 mi Calm Calm - 0.00 in   Mostly Cloudy
6:54 PM 18.0 °F - 12.0 °F 78% 30.29 in 10.0 mi Calm Calm - N/A   Mostly Cloudy
7:54 PM 7.0 °F - 3.9 °F 87% 30.36 in 10.0 mi Calm Calm - N/A   Partly Cloudy
8:54 PM 1.9 °F - -2.9 °F 80% 30.07 in 10.0 mi Calm Calm - N/A   Clear
9:54 PM -2.9 °F - -7.1 °F 82% 30.31 in 10.0 mi Calm Calm - N/A   Clear
10:54 PM -5.1 °F - -9.9 °F 80% 30.29 in 10.0 mi Calm Calm - N/A   Clear
11:54 PM -8.0 °F - -11.0 °F 86% 30.29 in 10.0 mi Calm Calm - N/A   Clear